Montreal, Quebec

1:14 PM EDT on March 23, 2017 (GMT -0400)
Montreal International (Dorval)

Weather History for CYUL - November, 2012

Change the Weather History Date:

Friday, November 16, 2012

  Actual Average Record
Temperature  
Mean Temperature 30 °F -  
Max Temperature 42 °F 34 °F 62 °F (2005)
Min Temperature 19 °F 19 °F 15 °F (1996)
Degree Days  
Heating Degree Days 34    
Moisture  
Dew Point 25 °F    
Average Humidity 76    
Maximum Humidity 93    
Minimum Humidity 46    
Precipitation  
Precipitation 0.00 in 0.12 in - ()
Sea Level Pressure  
Sea Level Pressure 30.42 in    
Wind  
Wind Speed 4 mph ()    
Max Wind Speed 10 mph    
Max Gust Speed -    
Visibility 13.6 miles    
Events      
Averages and records for this station are not official NWS values.
T = Trace of Precipitation, MM = Missing Value Source: Averaged Metar Reports

Daily Weather History Graph

Daily Weather History Graph

Search for Another Location

Airport or City:

Trip Planner

Search our weather history database for the weather conditions in past years. The results will help you decide how hot, cold, wet, or windy it might be!

Date:

Astronomy

Nov. 16, 2012 Rise Set
Actual Time 6:55 AM EST 4:23 PM EST
Civil Twilight 6:23 AM EST 4:55 PM EST
Nautical Twilight 5:47 AM EST 5:31 PM EST
Astronomical Twilight 5:12 AM EST 6:06 PM EST
Moon 9:50 AM EST (11/16) 7:17 PM EST (11/16)
Length of Visible Light 10h 31m
Length of Day
9h 27m
Waxing Crescent, 11% of the Moon is Illuminated
Nov 16
Waxing Crescent
Nov 20
First Quarter
Nov 28
Full
Dec 6
Last Quarter
Dec 13
New

Hourly Weather History & Observations

Time (EST) Temp. Windchill Dew Point Humidity Pressure Visibility Wind Dir Wind Speed Gust Speed Precip Events Conditions
12:00 AM 26.6 °F - 23.0 °F 86% 30.38 in 15.0 mi NNW 2.3 mph - N/A   Clear
1:00 AM 22 °F - 20 °F 86% 30.38 in 12 mi SW 2.3 mph - -  
1:00 AM 23.0 °F - 19.4 °F 86% 30.38 in 12.0 mi NW 2.3 mph - N/A   Clear
2:00 AM 24.8 °F - 21.2 °F 86% 30.38 in 12.0 mi Calm Calm - N/A   Clear
3:00 AM 24.8 °F - 23.0 °F 93% 30.38 in 12.0 mi Calm Calm - N/A   Clear
4:00 AM 19.4 °F - 17.6 °F 93% 30.38 in 12.0 mi Calm Calm - N/A   Clear
5:00 AM 21.2 °F - 17.6 °F 86% 30.40 in 12.0 mi NW 2.3 mph - N/A   Clear
6:00 AM 23.0 °F - 21.2 °F 93% 30.40 in 10.0 mi WNW 2.3 mph - N/A   Mostly Cloudy
7:00 AM 23 °F - 20 °F 85% 30.40 in 10 mi NW 2.3 mph - -   Scattered Clouds
7:00 AM 23.0 °F - 21.2 °F 93% 30.40 in 10.0 mi WNW 2.3 mph - N/A   Mostly Cloudy
8:00 AM 26.6 °F - 23.0 °F 86% 30.42 in 12.0 mi Calm Calm - N/A   Mostly Cloudy
9:00 AM 32.0 °F 26.4 °F 28.4 °F 87% 30.42 in 12.0 mi SW 5.8 mph - N/A   Mostly Cloudy
10:00 AM 35.6 °F 29.2 °F 28.4 °F 75% 30.43 in 15.0 mi WSW 8.1 mph - N/A   Scattered Clouds
11:00 AM 37.4 °F 30.8 °F 28.4 °F 70% 30.42 in 15.0 mi WSW 9.2 mph - N/A   Mostly Cloudy
12:00 PM 39.2 °F 32.5 °F 26.6 °F 61% 30.40 in 15.0 mi West 10.4 mph - N/A   Partly Cloudy
1:00 PM 41 °F - 27 °F 46% 30.40 in 15 mi West 8.1 mph - -   Clear
1:00 PM 41.0 °F 35.2 °F 26.6 °F 57% 30.40 in 15.0 mi WSW 9.2 mph - N/A   Partly Cloudy
2:00 PM 41.0 °F 35.8 °F 28.4 °F 61% 30.41 in 15.0 mi West 8.1 mph - N/A   Partly Cloudy
3:00 PM 42.8 °F 39.3 °F 28.4 °F 57% 30.41 in 15.0 mi SW 5.8 mph - N/A   Mostly Cloudy
4:00 PM 41.0 °F 35.8 °F 28.4 °F 61% 30.42 in 15.0 mi West 8.1 mph - N/A   Mostly Cloudy
5:00 PM 39.2 °F 33.6 °F 30.2 °F 70% 30.44 in 15.0 mi West 8.1 mph - N/A   Overcast
6:00 PM 39.2 °F 33.0 °F 30.2 °F 70% 30.45 in 15.0 mi West 9.2 mph - N/A   Overcast
7:00 PM 39 °F - 29 °F 57% 30.46 in 15 mi WNW 6.9 mph - -   Mostly Cloudy
7:00 PM 39.2 °F 33.6 °F 28.4 °F 65% 30.46 in 15.0 mi WNW 8.1 mph - N/A   Mostly Cloudy
8:00 PM 37.4 °F 32.8 °F 28.4 °F 70% 30.48 in 15.0 mi NW 5.8 mph - N/A   Mostly Cloudy
9:00 PM 33.8 °F 28.6 °F 28.4 °F 81% 30.49 in 15.0 mi WNW 5.8 mph - N/A   Partly Cloudy
10:00 PM 30.2 °F 23.4 °F 26.6 °F 86% 30.50 in 15.0 mi NW 6.9 mph - N/A   Partly Cloudy
11:00 PM 30.2 °F 22.6 °F 26.6 °F 86% 30.51 in 15.0 mi NW 8.1 mph - N/A   Partly Cloudy